This demonstration page uses our WeatherBlox Daily Observations layout. Learn more.

Left ArrowRight Arrow

Hourly Observations for May 27, 2018

Temp ( °F °C ) Dew Point ( °F °C ) Humidity (%) Winds ( mph kmh ) Pressure ( in mb ) Visibility ( mi km ) Precip ( " mm )
12:20 am 00:20 Cloudy with Nearby Thunderstorms 69 20.6 68 20 96 96 Calm 29.88 1012 10 16 0.08 2.03
12:28 am 00:28 Cloudy with Thunderstorms 69 20.6 67 19.4 93 93 S 5 7 29.88 1012 10 16 0.08 2.03
12:43 am 00:43 Cloudy with Nearby Thunderstorms 69 20.6 67 19.4 93 93 SSE 5 7 29.88 1012 10 16 0.08 2.03
12:53 am 00:53 Cloudy 70 21.1 67 19.4 90 90 SSE 5 7 29.87 1011 10 16 0.08 2.03
1:53 am 01:53 Mostly Cloudy 69 20.6 69 20.6 100 100 Calm 29.85 1011 9 14 0.00 0.03
2:53 am 02:53 Mostly Clear 69 20.6 69 20.6 100 100 Calm 29.86 1011 7 11 0.01 0.25
3:53 am 03:53 Clear with Mist and Fog 67 19.4 67 19.4 100 100 Calm 29.86 1011 4 6 0.00 0.00
4:38 am 04:38 Clear with Mist and Fog 68 20 68 20 100 100 Calm 29.88 1012 3 4 0.00 0.00
4:53 am 04:53 Clear with Mist and Fog 67 19.4 67 19.4 100 100 Calm 29.86 1011 4 6 0.00 0.00
5:53 am 05:53 Clear with Mist and Fog 68 20 68 20 100 100 Calm 29.87 1012 6 10 0.00 0.00
6:53 am 06:53 Sunny with Mist and Fog 68 20 68 20 100 100 Calm 29.89 1012 3 5 0.00 0.00
7:14 am 07:14 Sunny with Mist and Fog 69 20.6 69 20.6 100 100 Calm 29.91 1013 3 4 0.00 0.00
7:26 am 07:26 Partly Cloudy with Mist and Fog 69 20.6 69 20.6 100 100 Calm 29.91 1013 4 6 0.00 0.00
7:53 am 07:53 Sunny with Mist and Fog 70 21.1 70 21.1 100 100 Calm 29.92 1013 5 8 0.00 0.00
8:53 am 08:53 Sunny 72 22.2 70 21.1 94 94 VRB 3 6 29.93 1013 10 16 0.00 0.00
9:53 am 09:53 Sunny 76 24.4 70 21.1 82 82 Calm 29.93 1014 10 16 0.00 0.00
10:53 am 10:53 Sunny 79 26.1 71 21.7 77 77 VRB 3 6 29.93 1013 10 16 0.00 0.00
11:53 am 11:53 Sunny 82 27.8 71 21.7 69 69 Calm 29.93 1013 10 16 0.00 0.00
12:53 pm 12:53 Sunny 86 30 72 22.2 63 63 Calm 29.92 1013 10 16 0.00 0.00
1:53 pm 13:53 Mostly Sunny 86 30 73 22.8 65 65 SSE 3 6 29.91 1013 10 16 0.00 0.00
2:53 pm 14:53 Sunny 89 31.7 72 22.2 57 57 Calm 29.89 1012 10 16 0.00 0.00
3:53 pm 15:53 Sunny 89 31.7 68 20 50 50 N 3 6 29.88 1012 10 16 0.00 0.00
4:53 pm 16:53 Sunny 90 32.2 66 18.9 45 45 N 5 7 29.87 1012 10 16 0.00 0.00
5:53 pm 17:53 Sunny 89 31.7 69 20.6 52 52 Calm 29.88 1012 10 16 0.00 0.00
6:53 pm 18:53 Sunny 81 27.2 77 25 88 88 Calm 29.89 1012 10 16 0.00 0.00
7:53 pm 19:53 Sunny 85 29.4 72 22.2 65 65 Calm 29.89 1012 10 16 0.00 0.00
8:53 pm 20:53 Sunny 79 26.1 72 22.2 79 79 S 3 6 29.90 1013 10 16 0.00 0.00
9:53 pm 21:53 Clear 75 23.9 71 21.7 88 88 Calm 29.92 1013 10 16 0.00 0.00
10:53 pm 22:53 Clear 78 25.6 71 21.7 79 79 SSE 3 6 29.94 1014 10 16 0.00 0.00
11:53 pm 23:53 Clear 73 22.8 70 21.1 90 90 Calm 29.93 1014 10 16 0.00 0.00

Powered by AerisWeather